User: anonymous   Login
Location: Unspecified
(0.0000°N, 0.0000°E)
Time: 01:54:37
(UTC+00:00)
Language:

STARLINK-30771 - Orbit

View from above orbital plane
View from above orbital plane
View from above satellite
View from above satellite

Ground track
Ground track

The orbit is defined by the following mean orbital elements,

1 58169U          26145.38863659 +.00000000 +00000-0 +30193-4 0 00008
2 58169  53.1607 223.2574 0000858 101.3485 258.7612 15.30192523    03
Epoch (UTC): 25 May 2026 09:19:38
Eccentricity: 0.0000858
inclination: 53.1607°
perigee height: 475 km
apogee height: 476 km
right ascension of ascending node: 223.2574°
argument of perigee: 101.3485°
revolutions per day: 15.30192523
mean anomaly at epoch: 258.7612°

The dashed part of the orbit path shows where the satellite is in the earth's shadow,  

DLR